Year,Month,Day,Hour,Minute,Value (Times are PST for temperature in C)
2010,12,12,00,00,6.30
2010,12,12,00,01,6.30
2010,12,12,00,02,6.30
2010,12,12,00,03,6.30
2010,12,12,00,04,6.30
2010,12,12,00,05,6.30
2010,12,12,00,06,6.30
2010,12,12,00,07,6.30
2010,12,12,00,08,6.30
2010,12,12,00,09,6.30
2010,12,12,00,10,6.30
2010,12,12,00,11,6.30
2010,12,12,00,12,6.30
2010,12,12,00,13,6.30
2010,12,12,00,14,6.30
2010,12,12,00,15,6.30
2010,12,12,00,16,6.30
2010,12,12,00,17,6.40
2010,12,12,00,18,6.40
2010,12,12,00,19,6.40
2010,12,12,00,20,6.40
2010,12,12,00,21,6.40
2010,12,12,00,22,6.40
2010,12,12,00,23,6.40
2010,12,12,00,24,6.40
2010,12,12,00,25,6.40
2010,12,12,00,26,6.40
2010,12,12,00,27,6.40
2010,12,12,00,28,6.40
2010,12,12,00,29,6.40
2010,12,12,00,30,6.40
2010,12,12,00,31,6.40
2010,12,12,00,32,6.40
2010,12,12,00,33,6.40
2010,12,12,00,34,6.40
2010,12,12,00,35,6.40
2010,12,12,00,36,6.40
2010,12,12,00,37,6.40
2010,12,12,00,38,6.40
2010,12,12,00,39,6.40
2010,12,12,00,40,6.40
2010,12,12,00,41,6.40
2010,12,12,00,42,6.40
2010,12,12,00,43,6.40
2010,12,12,00,44,6.40
2010,12,12,00,45,6.40
2010,12,12,00,46,6.40
2010,12,12,00,47,6.40
2010,12,12,00,48,6.50
2010,12,12,00,49,6.50
2010,12,12,00,50,6.50
2010,12,12,00,51,6.50
2010,12,12,00,52,6.50
2010,12,12,00,53,6.50
2010,12,12,00,54,6.50
2010,12,12,00,55,6.50
2010,12,12,00,56,6.50
2010,12,12,00,57,6.50
2010,12,12,00,58,6.50
2010,12,12,00,59,6.50
2010,12,12,01,00,6.50
2010,12,12,01,01,6.50
2010,12,12,01,02,6.50
2010,12,12,01,03,6.50
2010,12,12,01,04,6.50
2010,12,12,01,05,6.50
2010,12,12,01,06,6.50
2010,12,12,01,07,6.50
2010,12,12,01,08,6.50
2010,12,12,01,09,6.50
2010,12,12,01,10,6.50
2010,12,12,01,11,6.50
2010,12,12,01,12,6.50
2010,12,12,01,13,6.60
2010,12,12,01,14,6.60
2010,12,12,01,15,6.60
2010,12,12,01,16,6.60
2010,12,12,01,17,6.60
2010,12,12,01,18,6.60
2010,12,12,01,19,6.60
2010,12,12,01,20,6.60
2010,12,12,01,21,6.60
2010,12,12,01,22,6.60
2010,12,12,01,23,6.60
2010,12,12,01,24,6.60
2010,12,12,01,25,6.60
2010,12,12,01,26,6.60
2010,12,12,01,27,6.60
2010,12,12,01,28,6.60
2010,12,12,01,29,6.60
2010,12,12,01,30,6.60
2010,12,12,01,31,6.60
2010,12,12,01,32,6.60
2010,12,12,01,33,6.60
2010,12,12,01,34,6.60
2010,12,12,01,35,6.60
2010,12,12,01,36,6.60
2010,12,12,01,37,6.60
2010,12,12,01,38,6.60
2010,12,12,01,39,6.60
2010,12,12,01,40,6.60
2010,12,12,01,41,6.60
2010,12,12,01,42,6.60
2010,12,12,01,43,6.60
2010,12,12,01,44,6.70
2010,12,12,01,45,6.60
2010,12,12,01,46,6.70
2010,12,12,01,47,6.60
2010,12,12,01,48,6.60
2010,12,12,01,49,6.60
2010,12,12,01,50,6.60
2010,12,12,01,51,6.60
2010,12,12,01,52,6.60
2010,12,12,01,53,6.60
2010,12,12,01,54,6.60
2010,12,12,01,55,6.60
2010,12,12,01,56,6.60
2010,12,12,01,57,6.60
2010,12,12,01,58,6.60
2010,12,12,01,59,6.60
2010,12,12,02,00,6.60
2010,12,12,02,01,6.60
2010,12,12,02,02,6.60
2010,12,12,02,03,6.60
2010,12,12,02,04,6.60
2010,12,12,02,05,6.60
2010,12,12,02,06,6.60
2010,12,12,02,07,6.60
2010,12,12,02,08,6.60
2010,12,12,02,09,6.60
2010,12,12,02,10,6.60
2010,12,12,02,11,6.60
2010,12,12,02,12,6.70
2010,12,12,02,13,6.70
2010,12,12,02,14,6.70
2010,12,12,02,15,6.70
2010,12,12,02,16,6.70
2010,12,12,02,17,6.70
2010,12,12,02,18,6.70
2010,12,12,02,19,6.70
2010,12,12,02,20,6.70
2010,12,12,02,21,6.70
2010,12,12,02,22,6.70
2010,12,12,02,23,6.70
2010,12,12,02,24,6.70
2010,12,12,02,25,6.70
2010,12,12,02,26,6.70
2010,12,12,02,27,6.70
2010,12,12,02,28,6.70
2010,12,12,02,29,6.70
2010,12,12,02,30,6.70
2010,12,12,02,31,6.70
2010,12,12,02,32,6.70
2010,12,12,02,33,6.70
2010,12,12,02,34,6.70
2010,12,12,02,35,6.70
2010,12,12,02,36,6.70
2010,12,12,02,37,6.70
2010,12,12,02,38,6.70
2010,12,12,02,39,6.70
2010,12,12,02,40,6.70
2010,12,12,02,41,6.70
2010,12,12,02,42,6.70
2010,12,12,02,43,6.70
2010,12,12,02,44,6.70
2010,12,12,02,45,6.70
2010,12,12,02,46,6.70
2010,12,12,02,47,6.70
2010,12,12,02,48,6.70
2010,12,12,02,49,6.70
2010,12,12,02,50,6.80
2010,12,12,02,51,6.80
2010,12,12,02,52,6.80
2010,12,12,02,53,6.80
2010,12,12,02,54,6.80
2010,12,12,02,55,6.80
2010,12,12,02,56,6.80
2010,12,12,02,57,6.80
2010,12,12,02,58,6.80
2010,12,12,02,59,6.80
2010,12,12,03,00,6.80
2010,12,12,03,01,6.80
2010,12,12,03,02,6.80
2010,12,12,03,03,6.80
2010,12,12,03,04,6.80
2010,12,12,03,05,6.80
2010,12,12,03,06,6.80
2010,12,12,03,07,6.80
2010,12,12,03,08,6.80
2010,12,12,03,09,6.80
2010,12,12,03,10,6.80
2010,12,12,03,11,6.80
2010,12,12,03,12,6.80
2010,12,12,03,13,6.80
2010,12,12,03,14,6.80
2010,12,12,03,15,6.80
2010,12,12,03,16,6.80
2010,12,12,03,17,6.80
2010,12,12,03,18,6.80
2010,12,12,03,19,6.80
2010,12,12,03,20,6.90
2010,12,12,03,21,6.90
2010,12,12,03,22,6.90
2010,12,12,03,23,6.90
2010,12,12,03,24,6.90
2010,12,12,03,25,6.90
2010,12,12,03,26,7.00
2010,12,12,03,27,7.00
2010,12,12,03,28,7.00
2010,12,12,03,29,6.90
2010,12,12,03,30,6.90
2010,12,12,03,31,6.90
2010,12,12,03,32,6.90
2010,12,12,03,33,6.90
2010,12,12,03,34,6.90
2010,12,12,03,35,7.00
2010,12,12,03,36,7.00
2010,12,12,03,37,7.10
2010,12,12,03,38,7.50
2010,12,12,03,39,8.00
2010,12,12,03,40,8.40
2010,12,12,03,41,8.70
2010,12,12,03,42,8.90
2010,12,12,03,43,9.00
2010,12,12,03,44,9.10
2010,12,12,03,45,9.20
2010,12,12,03,46,9.20
2010,12,12,03,47,9.20
2010,12,12,03,48,9.20
2010,12,12,03,49,9.20
2010,12,12,03,50,9.20
2010,12,12,03,51,9.10
2010,12,12,03,52,9.00
2010,12,12,03,53,8.90
2010,12,12,03,54,8.80
2010,12,12,03,55,8.80
2010,12,12,03,56,8.70
2010,12,12,03,57,8.70
2010,12,12,03,58,8.70
2010,12,12,03,59,8.70
2010,12,12,04,00,8.80
2010,12,12,04,01,8.80
2010,12,12,04,02,8.80
2010,12,12,04,03,8.80
2010,12,12,04,04,8.70
2010,12,12,04,05,8.70
2010,12,12,04,06,8.70
2010,12,12,04,07,8.70
2010,12,12,04,08,8.60
2010,12,12,04,09,8.60
2010,12,12,04,10,8.60
2010,12,12,04,11,8.60
2010,12,12,04,12,8.50
2010,12,12,04,13,8.50
2010,12,12,04,14,8.50
2010,12,12,04,15,8.40
2010,12,12,04,16,8.40
2010,12,12,04,17,8.40
2010,12,12,04,18,8.40
2010,12,12,04,19,8.40
2010,12,12,04,20,8.30
2010,12,12,04,21,8.30
2010,12,12,04,22,8.40
2010,12,12,04,23,8.40
2010,12,12,04,24,8.40
2010,12,12,04,25,8.40
2010,12,12,04,26,8.50
2010,12,12,04,27,8.70
2010,12,12,04,28,8.90
2010,12,12,04,29,9.10
2010,12,12,04,30,9.30
2010,12,12,04,31,9.40
2010,12,12,04,32,9.50
2010,12,12,04,33,9.60
2010,12,12,04,34,9.60
2010,12,12,04,35,9.60
2010,12,12,04,36,9.70
2010,12,12,04,37,9.80
2010,12,12,04,38,9.80
2010,12,12,04,39,9.90
2010,12,12,04,40,9.90
2010,12,12,04,41,9.90
2010,12,12,04,42,9.90
2010,12,12,04,43,10.00
2010,12,12,04,44,10.00
2010,12,12,04,45,10.00
2010,12,12,04,46,10.10
2010,12,12,04,47,10.10
2010,12,12,04,48,10.10
2010,12,12,04,49,10.10
2010,12,12,04,50,10.20
2010,12,12,04,51,10.20
2010,12,12,04,52,10.20
2010,12,12,04,53,10.20
2010,12,12,04,54,10.20
2010,12,12,04,55,10.10
2010,12,12,04,56,10.10
2010,12,12,04,57,10.10
2010,12,12,04,58,10.10
2010,12,12,04,59,10.20
2010,12,12,05,00,10.20
2010,12,12,05,01,10.20
2010,12,12,05,02,10.20
2010,12,12,05,03,10.10
2010,12,12,05,04,10.10
2010,12,12,05,05,10.20
2010,12,12,05,06,10.20
2010,12,12,05,07,10.20
2010,12,12,05,08,10.20
2010,12,12,05,09,10.20
2010,12,12,05,10,10.10
2010,12,12,05,11,10.10
2010,12,12,05,12,10.10
2010,12,12,05,13,10.10
2010,12,12,05,14,10.10
2010,12,12,05,15,10.10
2010,12,12,05,16,10.20
2010,12,12,05,17,10.20
2010,12,12,05,18,10.20
2010,12,12,05,19,10.20
2010,12,12,05,20,10.20
2010,12,12,05,21,10.20
2010,12,12,05,22,10.20
2010,12,12,05,23,10.20
2010,12,12,05,24,10.20
2010,12,12,05,25,10.20
2010,12,12,05,26,10.20
2010,12,12,05,27,10.20
2010,12,12,05,28,10.20
2010,12,12,05,29,10.20
2010,12,12,05,30,10.20
2010,12,12,05,31,10.10
2010,12,12,05,32,10.10
2010,12,12,05,33,10.10
2010,12,12,05,34,10.10
2010,12,12,05,35,10.10
2010,12,12,05,36,10.10
2010,12,12,05,37,10.10
2010,12,12,05,38,10.10
2010,12,12,05,39,10.10
2010,12,12,05,40,10.10
2010,12,12,05,41,10.10
2010,12,12,05,42,10.10
2010,12,12,05,43,10.10
2010,12,12,05,44,10.20
2010,12,12,05,45,10.30
2010,12,12,05,46,10.30
2010,12,12,05,47,10.30
2010,12,12,05,48,10.40
2010,12,12,05,49,10.40
2010,12,12,05,50,10.40
2010,12,12,05,51,10.40
2010,12,12,05,52,10.40
2010,12,12,05,53,10.50
2010,12,12,05,54,10.50
2010,12,12,05,55,10.40
2010,12,12,05,56,10.50
2010,12,12,05,57,10.50
2010,12,12,05,58,10.60
2010,12,12,05,59,10.60
2010,12,12,06,00,10.70
2010,12,12,06,01,10.70
2010,12,12,06,02,10.70
2010,12,12,06,03,10.70
2010,12,12,06,04,10.80
2010,12,12,06,05,10.70
2010,12,12,06,06,10.70
2010,12,12,06,07,10.70
2010,12,12,06,08,10.70
2010,12,12,06,09,10.80
2010,12,12,06,10,10.80
2010,12,12,06,11,10.80
2010,12,12,06,12,10.80
2010,12,12,06,13,10.70
2010,12,12,06,14,10.70
2010,12,12,06,15,10.70
2010,12,12,06,16,10.80
2010,12,12,06,17,10.80
2010,12,12,06,18,10.80
2010,12,12,06,19,10.80
2010,12,12,06,20,10.80
2010,12,12,06,21,10.80
2010,12,12,06,22,10.90
2010,12,12,06,23,10.90
2010,12,12,06,24,10.90
2010,12,12,06,25,10.90
2010,12,12,06,26,10.90
2010,12,12,06,27,10.90
2010,12,12,06,28,10.90
2010,12,12,06,29,10.90
2010,12,12,06,30,10.90
2010,12,12,06,31,10.90
2010,12,12,06,32,10.90
2010,12,12,06,33,10.90
2010,12,12,06,34,10.90
2010,12,12,06,35,10.80
2010,12,12,06,36,10.80
2010,12,12,06,37,10.80
2010,12,12,06,38,10.80
2010,12,12,06,39,10.80
2010,12,12,06,40,10.80
2010,12,12,06,41,10.80
2010,12,12,06,42,10.80
2010,12,12,06,43,10.80
2010,12,12,06,44,10.80
2010,12,12,06,45,10.80
2010,12,12,06,46,10.80
2010,12,12,06,47,10.80
2010,12,12,06,48,10.80
2010,12,12,06,49,10.90
2010,12,12,06,50,10.90
2010,12,12,06,51,10.90
2010,12,12,06,52,11.00
2010,12,12,06,53,11.00
2010,12,12,06,54,11.00
2010,12,12,06,55,11.00
2010,12,12,06,56,11.00
2010,12,12,06,57,11.00
2010,12,12,06,58,11.10
2010,12,12,06,59,11.10
2010,12,12,07,00,11.10
2010,12,12,07,01,11.10
2010,12,12,07,02,11.10
2010,12,12,07,03,11.10
2010,12,12,07,04,11.00
2010,12,12,07,05,11.00
2010,12,12,07,06,11.00
2010,12,12,07,07,11.00
2010,12,12,07,08,10.90
2010,12,12,07,09,10.90
2010,12,12,07,10,10.90
2010,12,12,07,11,10.90
2010,12,12,07,12,10.90
2010,12,12,07,13,10.90
2010,12,12,07,14,10.90
2010,12,12,07,15,11.00
2010,12,12,07,16,11.00
2010,12,12,07,17,11.00
2010,12,12,07,18,11.00
2010,12,12,07,19,11.10
2010,12,12,07,20,11.10
2010,12,12,07,21,11.10
2010,12,12,07,22,11.10
2010,12,12,07,23,11.20
2010,12,12,07,24,11.20
2010,12,12,07,25,11.20
2010,12,12,07,26,11.20
2010,12,12,07,27,11.10
2010,12,12,07,28,11.10
2010,12,12,07,29,11.10
2010,12,12,07,30,11.10
2010,12,12,07,31,11.10
2010,12,12,07,32,11.10
2010,12,12,07,33,11.10
2010,12,12,07,34,11.10
2010,12,12,07,35,11.10
2010,12,12,07,36,11.10
2010,12,12,07,37,11.10
2010,12,12,07,38,11.10
2010,12,12,07,39,11.10
2010,12,12,07,40,11.20
2010,12,12,07,41,11.20
2010,12,12,07,42,11.20
2010,12,12,07,43,11.20
2010,12,12,07,44,11.20
2010,12,12,07,45,11.20
2010,12,12,07,46,11.20
2010,12,12,07,47,11.20
2010,12,12,07,48,11.20
2010,12,12,07,49,11.20
2010,12,12,07,50,11.20
2010,12,12,07,51,11.20
2010,12,12,07,52,11.20
2010,12,12,07,53,11.20
2010,12,12,07,54,11.20
2010,12,12,07,55,11.20
2010,12,12,07,56,11.20
2010,12,12,07,57,11.20
2010,12,12,07,58,11.10
2010,12,12,07,59,11.10
2010,12,12,08,00,11.10
2010,12,12,08,01,11.10
2010,12,12,08,02,11.10
2010,12,12,08,03,11.10
2010,12,12,08,04,11.10
2010,12,12,08,05,11.10
2010,12,12,08,06,11.10
2010,12,12,08,07,11.10
2010,12,12,08,08,11.10
2010,12,12,08,09,11.10
2010,12,12,08,10,11.20
2010,12,12,08,11,11.20
2010,12,12,08,12,11.20
2010,12,12,08,13,11.20
2010,12,12,08,14,11.20
2010,12,12,08,15,11.20
2010,12,12,08,16,11.20
2010,12,12,08,17,11.20
2010,12,12,08,18,11.20
2010,12,12,08,19,11.10
2010,12,12,08,20,11.10
2010,12,12,08,21,11.10
2010,12,12,08,22,11.10
2010,12,12,08,23,11.10
2010,12,12,08,24,11.00
2010,12,12,08,25,11.00
2010,12,12,08,26,10.90
2010,12,12,08,27,10.90
2010,12,12,08,28,10.90
2010,12,12,08,29,10.90
2010,12,12,08,30,10.80
2010,12,12,08,31,10.80
2010,12,12,08,32,10.80
2010,12,12,08,33,10.90
2010,12,12,08,34,10.90
2010,12,12,08,35,10.90
2010,12,12,08,36,10.90
2010,12,12,08,37,10.90
2010,12,12,08,38,10.80
2010,12,12,08,39,10.80
2010,12,12,08,40,10.80
2010,12,12,08,41,10.80
2010,12,12,08,42,10.80
2010,12,12,08,43,10.80
2010,12,12,08,44,10.70
2010,12,12,08,45,10.70
2010,12,12,08,46,10.70
2010,12,12,08,47,10.70
2010,12,12,08,48,10.70
2010,12,12,08,49,10.70
2010,12,12,08,50,10.80
2010,12,12,08,51,10.80
2010,12,12,08,52,10.80
2010,12,12,08,53,10.80
2010,12,12,08,54,10.80
2010,12,12,08,55,10.80
2010,12,12,08,56,10.80
2010,12,12,08,57,10.80
2010,12,12,08,58,10.80
2010,12,12,08,59,10.90
2010,12,12,09,00,11.00
2010,12,12,09,01,11.10
2010,12,12,09,02,11.20
2010,12,12,09,03,11.20
2010,12,12,09,04,11.30
2010,12,12,09,05,11.30
2010,12,12,09,06,11.40
2010,12,12,09,07,11.40
2010,12,12,09,08,11.40
2010,12,12,09,09,11.40
2010,12,12,09,10,11.40
2010,12,12,09,11,11.40
2010,12,12,09,12,11.40
2010,12,12,09,13,11.40
2010,12,12,09,14,11.40
2010,12,12,09,15,11.40
2010,12,12,09,16,11.40
2010,12,12,09,17,11.40
2010,12,12,09,18,11.40
2010,12,12,09,19,11.40
2010,12,12,09,20,11.40
2010,12,12,09,21,11.40
2010,12,12,09,22,11.40
2010,12,12,09,23,11.40
2010,12,12,09,24,11.40
2010,12,12,09,25,11.40
2010,12,12,09,26,11.40
2010,12,12,09,27,11.40
2010,12,12,09,28,11.40
2010,12,12,09,29,11.40
2010,12,12,09,30,11.40
2010,12,12,09,31,11.40
2010,12,12,09,32,11.40
2010,12,12,09,33,11.40
2010,12,12,09,34,11.40
2010,12,12,09,35,11.30
2010,12,12,09,36,11.30
2010,12,12,09,37,11.30
2010,12,12,09,38,11.30
2010,12,12,09,39,11.30
2010,12,12,09,40,11.30
2010,12,12,09,41,11.30
2010,12,12,09,42,11.30
2010,12,12,09,43,11.30
2010,12,12,09,44,11.30
2010,12,12,09,45,11.20
2010,12,12,09,46,11.20
2010,12,12,09,47,11.30
2010,12,12,09,48,11.30
2010,12,12,09,49,11.30
2010,12,12,09,50,11.20
2010,12,12,09,51,11.20
2010,12,12,09,52,11.20
2010,12,12,09,53,11.20
2010,12,12,09,54,11.20
2010,12,12,09,55,11.20
2010,12,12,09,56,11.20
2010,12,12,09,57,11.20
2010,12,12,09,58,11.20
2010,12,12,09,59,11.20
2010,12,12,10,00,11.20
2010,12,12,10,01,11.10
2010,12,12,10,02,11.10
2010,12,12,10,03,11.10
2010,12,12,10,04,11.10
2010,12,12,10,05,11.10
2010,12,12,10,06,11.10
2010,12,12,10,07,11.10
2010,12,12,10,08,11.10
2010,12,12,10,09,11.10
2010,12,12,10,10,11.10
2010,12,12,10,11,11.10
2010,12,12,10,12,11.10
2010,12,12,10,13,11.10
2010,12,12,10,14,11.10
2010,12,12,10,15,11.10
2010,12,12,10,16,11.10
2010,12,12,10,17,11.10
2010,12,12,10,18,11.10
2010,12,12,10,19,11.10
2010,12,12,10,20,11.10
2010,12,12,10,21,11.10
2010,12,12,10,22,11.10
2010,12,12,10,23,11.10
2010,12,12,10,24,11.10
2010,12,12,10,25,11.10
2010,12,12,10,26,11.10
2010,12,12,10,27,11.20
2010,12,12,10,28,11.20
2010,12,12,10,29,11.20
2010,12,12,10,30,11.20
2010,12,12,10,31,11.20
2010,12,12,10,32,11.20
2010,12,12,10,33,11.20
2010,12,12,10,34,11.20
2010,12,12,10,35,11.20
2010,12,12,10,36,11.20
2010,12,12,10,37,11.20
2010,12,12,10,38,11.20
2010,12,12,10,39,11.20
2010,12,12,10,40,11.20
2010,12,12,10,41,11.20
2010,12,12,10,42,11.20
2010,12,12,10,43,11.20
2010,12,12,10,44,11.20
2010,12,12,10,45,11.20
2010,12,12,10,46,11.20
2010,12,12,10,47,11.20
2010,12,12,10,48,11.30
2010,12,12,10,49,11.30
2010,12,12,10,50,11.30
2010,12,12,10,51,11.30
2010,12,12,10,52,11.20
2010,12,12,10,53,11.20
2010,12,12,10,54,11.20
2010,12,12,10,55,11.20
2010,12,12,10,56,11.20
2010,12,12,10,57,11.20
2010,12,12,10,58,11.20
2010,12,12,10,59,11.20
2010,12,12,11,00,11.20
2010,12,12,11,01,11.20
2010,12,12,11,02,11.20
2010,12,12,11,03,11.30
2010,12,12,11,04,11.30
2010,12,12,11,05,11.30
2010,12,12,11,06,11.30
2010,12,12,11,07,11.30
2010,12,12,11,08,11.30
2010,12,12,11,09,11.30
2010,12,12,11,10,11.30
2010,12,12,11,11,11.40
2010,12,12,11,12,11.40
2010,12,12,11,13,11.40
2010,12,12,11,14,11.40
2010,12,12,11,15,11.40
2010,12,12,11,16,11.40
2010,12,12,11,17,11.40
2010,12,12,11,18,11.40
2010,12,12,11,19,11.40
2010,12,12,11,20,11.50
2010,12,12,11,21,11.50
2010,12,12,11,22,11.40
2010,12,12,11,23,11.40
2010,12,12,11,24,11.40
2010,12,12,11,25,11.40
2010,12,12,11,26,11.40
2010,12,12,11,27,11.40
2010,12,12,11,28,11.40
2010,12,12,11,29,11.40
2010,12,12,11,30,11.50
2010,12,12,11,31,11.50
2010,12,12,11,32,11.50
2010,12,12,11,33,11.50
2010,12,12,11,34,11.50
2010,12,12,11,35,11.50
2010,12,12,11,36,11.60
2010,12,12,11,37,11.60
2010,12,12,11,38,11.60
2010,12,12,11,39,11.60
2010,12,12,11,40,11.60
2010,12,12,11,41,11.60
2010,12,12,11,42,11.60
2010,12,12,11,43,11.60
2010,12,12,11,44,11.60
2010,12,12,11,45,11.60
2010,12,12,11,46,11.60
2010,12,12,11,47,11.70
2010,12,12,11,48,11.70
2010,12,12,11,49,11.70
2010,12,12,11,50,11.70
2010,12,12,11,51,11.70
2010,12,12,11,52,11.70
2010,12,12,11,53,11.70
2010,12,12,11,54,11.70
2010,12,12,11,55,11.70
2010,12,12,11,56,11.80
2010,12,12,11,57,11.80
2010,12,12,11,58,11.80
2010,12,12,11,59,11.80
2010,12,12,12,00,11.80
2010,12,12,12,01,11.80
2010,12,12,12,02,11.90
2010,12,12,12,03,11.90
2010,12,12,12,04,11.90
2010,12,12,12,05,11.90
2010,12,12,12,06,11.90
2010,12,12,12,07,11.90
2010,12,12,12,08,11.90
2010,12,12,12,09,11.90
2010,12,12,12,10,11.90
2010,12,12,12,11,11.90
2010,12,12,12,12,11.90
2010,12,12,12,13,11.90
2010,12,12,12,14,11.90
2010,12,12,12,15,11.90
2010,12,12,12,16,11.90
2010,12,12,12,17,11.90
2010,12,12,12,18,11.90
2010,12,12,12,19,11.90
2010,12,12,12,20,11.90
2010,12,12,12,21,11.90
2010,12,12,12,22,11.90
2010,12,12,12,23,11.90
2010,12,12,12,24,11.90
2010,12,12,12,25,11.90
2010,12,12,12,26,11.90
2010,12,12,12,27,11.90
2010,12,12,12,28,11.90
2010,12,12,12,29,11.90
2010,12,12,12,30,11.90
2010,12,12,12,31,11.90
2010,12,12,12,32,11.90
2010,12,12,12,33,11.90
2010,12,12,12,34,11.80
2010,12,12,12,35,11.80
2010,12,12,12,36,11.80
2010,12,12,12,37,11.80
2010,12,12,12,38,11.80
2010,12,12,12,39,11.80
2010,12,12,12,40,11.80
2010,12,12,12,41,11.80
2010,12,12,12,42,11.80
2010,12,12,12,43,11.80
2010,12,12,12,44,11.80
2010,12,12,12,45,11.80
2010,12,12,12,46,11.80
2010,12,12,12,47,11.80
2010,12,12,12,48,11.80
2010,12,12,12,49,11.80
2010,12,12,12,50,11.80
2010,12,12,12,51,11.70
2010,12,12,12,52,11.70
2010,12,12,12,53,11.70
2010,12,12,12,54,11.70
2010,12,12,12,55,11.70
2010,12,12,12,56,11.70
2010,12,12,12,57,11.70
2010,12,12,12,58,11.70
2010,12,12,12,59,11.60
2010,12,12,13,00,11.60
2010,12,12,13,01,11.60
2010,12,12,13,02,11.60
2010,12,12,13,03,11.60
2010,12,12,13,04,11.60
2010,12,12,13,05,11.60
2010,12,12,13,06,11.60
2010,12,12,13,07,11.60
2010,12,12,13,08,11.60
2010,12,12,13,09,11.60
2010,12,12,13,10,11.60
2010,12,12,13,11,11.50
2010,12,12,13,12,11.50
2010,12,12,13,13,11.50
2010,12,12,13,14,11.50
2010,12,12,13,15,11.50
2010,12,12,13,16,11.50
2010,12,12,13,17,11.50
2010,12,12,13,18,11.50
2010,12,12,13,19,11.50
2010,12,12,13,20,11.50
2010,12,12,13,21,11.50
2010,12,12,13,22,11.60
2010,12,12,13,23,11.60
2010,12,12,13,24,11.60
2010,12,12,13,25,11.60
2010,12,12,13,26,11.60
2010,12,12,13,27,11.60
2010,12,12,13,28,11.60
2010,12,12,13,29,11.60
2010,12,12,13,30,11.60
2010,12,12,15,41,11.20
2010,12,12,15,42,11.10
2010,12,12,15,43,11.10
2010,12,12,15,44,11.10
2010,12,12,15,45,11.10
2010,12,12,15,46,11.10
2010,12,12,15,47,11.10
2010,12,12,15,48,11.10
2010,12,12,15,49,11.00
2010,12,12,15,50,11.00
2010,12,12,15,51,11.00
2010,12,12,15,52,10.90
2010,12,12,15,53,10.90
2010,12,12,15,54,10.90
2010,12,12,15,55,10.90
2010,12,12,15,56,10.90
2010,12,12,15,57,10.80
2010,12,12,15,58,10.80
2010,12,12,15,59,10.80
2010,12,12,16,00,10.80
2010,12,12,16,01,10.70
2010,12,12,16,02,10.70
2010,12,12,16,03,10.70
2010,12,12,16,04,10.70
2010,12,12,16,05,10.70
2010,12,12,16,06,10.60
2010,12,12,16,07,10.60
2010,12,12,16,08,10.60
2010,12,12,16,09,10.60
2010,12,12,16,10,10.60
2010,12,12,16,11,10.60
2010,12,12,16,12,10.60
2010,12,12,16,13,10.60
2010,12,12,16,14,10.60
2010,12,12,16,15,10.60
2010,12,12,16,16,10.60
2010,12,12,16,17,10.50
2010,12,12,16,18,10.50
2010,12,12,16,19,10.50
2010,12,12,16,20,10.50
2010,12,12,16,21,10.50
2010,12,12,16,22,10.50
2010,12,12,16,23,10.50
2010,12,12,16,24,10.40
2010,12,12,16,25,10.40
2010,12,12,16,26,10.40
2010,12,12,16,27,10.30
2010,12,12,16,28,10.30
2010,12,12,16,29,10.30
2010,12,12,16,30,10.30
2010,12,12,16,31,10.20
2010,12,12,16,32,10.20
2010,12,12,16,33,10.10
2010,12,12,16,34,10.20
2010,12,12,16,35,10.20
2010,12,12,16,36,10.20
2010,12,12,16,37,10.20
2010,12,12,16,38,10.20
2010,12,12,16,39,10.20
2010,12,12,16,40,10.20
2010,12,12,16,41,10.20
2010,12,12,16,42,10.10
2010,12,12,16,43,10.10
2010,12,12,16,44,10.10
2010,12,12,16,45,10.10
2010,12,12,16,46,10.10
2010,12,12,16,47,10.10
2010,12,12,16,48,10.00
2010,12,12,16,49,9.90
2010,12,12,16,50,9.90
2010,12,12,16,51,9.90
2010,12,12,16,52,9.90
2010,12,12,16,53,9.90
2010,12,12,16,54,9.90
2010,12,12,16,55,9.90
2010,12,12,16,56,9.90
2010,12,12,16,57,9.90
2010,12,12,16,58,9.80
2010,12,12,16,59,9.80
2010,12,12,17,00,9.80
2010,12,12,17,01,9.80
2010,12,12,17,02,9.80
2010,12,12,17,03,9.80
2010,12,12,17,04,9.80
2010,12,12,17,05,9.70
2010,12,12,17,06,9.70
2010,12,12,17,07,9.60
2010,12,12,17,08,9.60
2010,12,12,17,09,9.60
2010,12,12,17,10,9.70
2010,12,12,17,11,9.70
2010,12,12,17,12,9.70
2010,12,12,17,13,9.70
2010,12,12,17,14,9.60
2010,12,12,17,15,9.60
2010,12,12,17,16,9.60
2010,12,12,17,17,9.60
2010,12,12,17,18,9.60
2010,12,12,17,19,9.60
2010,12,12,17,20,9.60
2010,12,12,17,21,9.60
2010,12,12,17,22,9.60
2010,12,12,17,23,9.60
2010,12,12,17,24,9.60
2010,12,12,17,25,9.60
2010,12,12,17,26,9.60
2010,12,12,17,27,9.60
2010,12,12,17,28,9.60
2010,12,12,17,29,9.60
2010,12,12,17,30,9.60
2010,12,12,17,31,9.60
2010,12,12,17,32,9.50
2010,12,12,17,33,9.50
2010,12,12,17,34,9.50
2010,12,12,17,35,9.50
2010,12,12,17,36,9.50
2010,12,12,17,37,9.50
2010,12,12,17,38,9.50
2010,12,12,17,39,9.60
2010,12,12,17,40,9.60
2010,12,12,17,41,9.60
2010,12,12,17,42,9.60
2010,12,12,17,43,9.60
2010,12,12,17,44,9.60
2010,12,12,17,45,9.60
2010,12,12,17,46,9.60
2010,12,12,17,47,9.60
2010,12,12,17,48,9.60
2010,12,12,17,49,9.60
2010,12,12,17,50,9.50
2010,12,12,17,51,9.50
2010,12,12,17,52,9.60
2010,12,12,17,53,9.60
2010,12,12,17,54,9.50
2010,12,12,17,55,9.50
2010,12,12,17,56,9.40
2010,12,12,17,57,9.40
2010,12,12,17,58,9.40
2010,12,12,17,59,9.30
2010,12,12,18,00,9.30
2010,12,12,18,01,9.30
2010,12,12,18,02,9.20
2010,12,12,18,03,9.20
2010,12,12,18,04,9.20
2010,12,12,18,05,9.10
2010,12,12,18,06,9.10
2010,12,12,18,07,9.00
2010,12,12,18,08,9.00
2010,12,12,18,09,9.00
2010,12,12,18,10,9.10
2010,12,12,18,11,9.10
2010,12,12,18,12,9.10
2010,12,12,18,13,9.10
2010,12,12,18,14,9.10
2010,12,12,18,15,9.10
2010,12,12,18,16,9.10
2010,12,12,18,17,9.10
2010,12,12,18,18,9.00
2010,12,12,18,19,9.00
2010,12,12,18,20,8.90
2010,12,12,18,21,8.90
2010,12,12,18,22,8.90
2010,12,12,18,23,8.90
2010,12,12,18,24,8.90
2010,12,12,18,25,8.90
2010,12,12,18,26,8.90
2010,12,12,18,27,8.90
2010,12,12,18,28,8.80
2010,12,12,18,29,8.80
2010,12,12,18,30,8.80
2010,12,12,18,31,8.80
2010,12,12,18,32,8.80
2010,12,12,18,33,8.80
2010,12,12,18,34,8.80
2010,12,12,18,35,8.80
2010,12,12,18,36,8.80
2010,12,12,18,37,8.80
2010,12,12,18,38,8.80
2010,12,12,18,39,8.80
2010,12,12,18,40,8.90
2010,12,12,18,41,8.80
2010,12,12,18,42,8.80
2010,12,12,18,43,8.80
2010,12,12,18,44,8.80
2010,12,12,18,45,8.80
2010,12,12,18,46,8.80
2010,12,12,18,47,8.80
2010,12,12,18,48,8.80
2010,12,12,18,49,8.80
2010,12,12,18,50,8.80
2010,12,12,18,51,8.80
2010,12,12,18,52,8.80
2010,12,12,18,53,8.80
2010,12,12,18,54,8.80
2010,12,12,18,55,8.80
2010,12,12,18,56,8.80
2010,12,12,18,57,8.80
2010,12,12,18,58,8.80
2010,12,12,18,59,8.80
2010,12,12,19,00,8.80
2010,12,12,19,01,8.80
2010,12,12,19,02,8.90
2010,12,12,19,03,8.90
2010,12,12,19,04,8.90
2010,12,12,19,05,8.90
2010,12,12,19,06,8.90
2010,12,12,19,07,8.90
2010,12,12,19,08,8.90
2010,12,12,19,09,8.90
2010,12,12,19,10,9.00
2010,12,12,19,11,9.00
2010,12,12,19,12,9.00
2010,12,12,19,13,9.00
2010,12,12,19,14,9.00
2010,12,12,19,15,9.00
2010,12,12,19,16,9.00
2010,12,12,19,17,9.00
2010,12,12,19,18,9.10
2010,12,12,19,19,9.10
2010,12,12,19,20,9.10
2010,12,12,19,21,9.10
2010,12,12,19,22,9.10
2010,12,12,19,23,9.00
2010,12,12,19,24,9.00
2010,12,12,19,25,8.90
2010,12,12,19,26,8.90
2010,12,12,19,27,8.80
2010,12,12,19,28,8.80
2010,12,12,19,29,8.70
2010,12,12,19,30,8.70
2010,12,12,19,31,8.70
2010,12,12,19,32,8.70
2010,12,12,19,33,8.80
2010,12,12,19,34,8.80
2010,12,12,19,35,8.80
2010,12,12,19,36,8.70
2010,12,12,19,37,8.70
2010,12,12,19,38,8.70
2010,12,12,19,39,8.60
2010,12,12,19,40,8.60
2010,12,12,19,41,8.50
2010,12,12,19,42,8.40
2010,12,12,19,43,8.40
2010,12,12,19,44,8.30
2010,12,12,19,45,8.30
2010,12,12,19,46,8.20
2010,12,12,19,47,8.20
2010,12,12,19,48,8.20
2010,12,12,19,49,8.20